Wind_Speed
39 39 39 38 38 37 37 36 36 35 34 33 33 32 31 31 31 31 31 31 31 32 31 31 32 32 32 32 31 31 31 31 30 30 31 31 31 31 31 31 31 32 32
41 41 41 40 39 39 39 38 37 38 37 36 35 35 34 33 33 33 33 33 34 34 33 33 34 33 33 33 32 32 32 32 32 31 32 32 32 33 33 33 33 33 32
43 42 42 42 41 41 40 40 39 39 39 38 37 37 36 36 35 34 35 35 35 35 35 35 35 34 34 34 34 34 34 34 34 34 34 34 34 35 34 35 34 34 33
45 44 44 43 43 43 42 41 41 41 41 40 40 39 38 38 38 37 37 37 37 36 36 36 36 35 35 35 35 36 36 36 37 36 36 36 36 36 36 35 35 34 34
45 45 45 45 45 45 44 43 43 43 43 42 41 41 40 41 40 39 39 38 38 38 38 38 38 37 37 37 37 37 37 38 37 37 37 37 37 36 36 35 35 35 34
47 46 46 46 46 46 45 45 45 45 44 44 43 42 42 43 43 42 42 41 40 39 39 39 39 40 39 39 39 39 39 39 38 38 38 38 38 38 37 37 37 36 36
49 49 48 47 48 47 46 47 47 47 46 45 45 44 44 44 44 44 44 43 42 41 40 40 41 41 41 41 40 40 39 39 40 40 40 39 39 38 38 39 38 37 37
51 51 49 48 49 49 49 48 49 48 46 46 46 46 45 45 46 46 45 45 44 43 42 41 42 42 43 42 41 41 40 40 41 41 41 40 40 40 41 40 40 40 39
53 53 52 51 50 50 51 51 50 49 49 49 48 48 48 46 46 46 46 46 45 45 45 45 44 43 42 42 42 42 42 42 42 43 43 43 43 44 43 42 42 41 41
53 54 54 54 53 51 51 50 50 50 50 50 49 49 49 49 49 49 48 48 48 46 45 44 44 44 44 44 43 43 44 44 45 44 44 44 45 46 46 45 44 44 44
49 51 51 51 51 51 51 50 50 50 50 51 50 49 50 50 49 49 49 49 48 47 46 46 45 45 45 45 45 45 45 46 46 46 45 45 46 47 47 47 46 46 47
46 46 47 48 49 50 50 49 49 49 49 50 49 49 50 50 49 49 49 48 47 46 46 46 46 45 45 46 47 47 47 47 47 48 48 48 48 49 49 49 49 49 50
44 44 44 45 46 48 48 48 48 48 48 49 50 50 50 50 50 50 49 48 47 46 45 46 46 46 46 46 47 47 47 47 48 49 50 50 51 51 51 51 51 52 52
41 42 42 43 45 45 47 48 48 48 48 48 50 51 51 50 51 50 49 48 48 48 47 46 47 49 49 48 47 47 48 48 50 51 51 52 53 52 53 52 52 52 51
39 40 41 41 42 43 44 45 47 48 49 50 50 50 50 50 49 49 48 48 49 50 48 47 47 47 48 48 49 48 49 51 52 52 53 53 54 54 54 53 53 52 51
37 37 38 39 40 40 42 44 46 47 47 49 49 49 48 48 48 48 48 48 48 48 48 47 47 48 48 49 50 50 50 51 52 52 53 53 53 54 54 53 53 52 51
33 33 34 37 38 39 40 41 42 43 44 44 45 46 46 46 47 48 48 49 49 48 49 48 48 49 49 50 51 51 51 51 52 53 54 54 53 53 53 53 53 53 52
27 29 30 32 33 34 35 36 37 39 40 40 40 41 42 44 45 46 47 48 49 49 49 49 50 50 51 51 51 52 52 52 53 54 55 54 53 53 53 53 53 52 52
23 25 28 29 30 31 32 34 35 37 37 37 38 40 41 42 44 45 46 47 47 49 49 50 50 51 51 52 52 53 53 54 55 54 54 53 52 52 52 52 51 51 50
20 22 24 26 28 29 30 31 31 33 35 36 38 40 41 42 43 43 44 45 46 47 49 50 50 51 52 53 53 53 53 55 55 54 52 51 51 50 50 49 48 48 48
19 20 21 22 24 26 27 29 30 32 34 36 38 39 41 42 43 44 44 45 46 47 49 50 50 51 52 52 53 53 54 54 54 53 52 51 50 49 49 47 47 47 47
17 19 20 22 23 25 27 28 30 31 32 34 36 37 39 40 41 43 45 46 47 48 49 50 51 51 52 53 53 54 54 54 53 53 52 50 50 49 48 47 47 47 46
17 18 20 21 22 23 24 25 27 29 31 33 35 37 38 39 41 42 44 46 48 49 50 51 52 52 53 54 54 53 54 53 52 52 52 51 50 49 48 48 47 46 45
18 19 21 22 23 24 26 28 29 31 32 34 36 37 38 39 41 42 43 45 47 49 50 51 52 52 53 53 53 52 52 52 51 51 51 51 50 49 48 48 48 46 44
20 21 22 24 25 27 28 30 31 32 34 35 36 37 37 38 40 41 42 44 45 47 48 49 50 51 52 52 52 51 50 50 50 50 50 50 50 49 47 46 47 46 45
21 22 24 25 27 28 29 30 32 33 34 34 34 35 36 37 38 39 41 42 44 45 46 47 49 49 50 50 49 49 48 48 49 48 48 48 47 47 45 45 46 46 46
Wind_Direction
257 258 259 259 259 260 261 261 262 263 263 264 265 266 268 268 269 269 270 272 273 273 274 276 276 277 278 279 279 280 282 282 283 285 285 286 287 289 291 293 296 297 298
256 257 258 258 259 261 261 261 261 262 263 264 264 265 266 267 268 269 270 271 272 273 273 274 276 275 276 277 279 280 281 282 282 284 284 286 286 288 290 292 294 295 296
255 256 257 257 259 259 260 261 262 262 263 263 264 265 266 267 267 268 270 271 272 272 273 274 274 273 274 276 278 279 280 281 282 283 283 284 286 287 288 290 292 293 294
255 255 255 256 258 259 259 260 261 262 262 262 263 264 265 266 268 268 270 271 272 272 272 272 272 273 274 275 277 278 279 281 281 281 282 283 284 286 287 288 290 291 291
254 254 254 256 258 259 259 260 261 261 261 261 263 263 263 265 267 268 270 271 272 272 271 270 271 272 273 275 276 277 279 281 280 281 281 282 284 286 287 287 288 288 290
253 253 254 255 257 258 259 260 261 260 260 261 262 263 263 263 266 267 269 271 272 272 271 270 271 271 273 274 275 276 278 278 279 279 280 282 284 285 284 285 286 287 287
251 253 254 254 256 257 258 259 260 260 260 260 261 262 262 263 265 267 268 270 270 270 270 270 270 272 273 274 274 275 276 278 278 279 280 281 282 283 284 285 286 286 286
252 252 253 254 256 256 257 258 259 259 259 260 261 262 262 265 267 267 267 268 268 268 268 268 270 272 273 273 274 274 275 277 277 278 278 279 280 281 283 283 284 285 285
252 252 252 253 254 256 257 258 258 258 259 260 262 262 263 265 266 266 267 267 268 269 269 269 270 272 272 273 274 275 276 276 278 278 278 279 280 280 281 281 282 282 283
253 252 253 253 253 255 257 257 259 259 260 261 262 263 264 265 265 265 265 266 268 270 269 269 269 269 272 273 274 275 276 277 278 278 279 279 278 279 279 279 279 280 281
254 254 253 253 254 254 256 257 258 258 258 259 260 262 265 265 266 266 265 265 267 267 267 268 269 270 271 272 273 274 274 276 278 278 278 278 278 279 279 278 277 278 279
253 254 254 254 254 254 255 256 256 257 258 259 260 263 264 265 266 267 267 265 264 265 267 268 269 270 270 272 273 273 274 275 276 277 277 278 278 279 279 278 277 277 278
252 253 255 255 255 254 254 255 256 257 258 260 260 262 263 265 267 268 268 267 265 265 266 268 269 269 271 273 274 274 275 275 276 277 277 278 278 279 280 278 278 278 279
252 253 254 255 254 255 254 254 256 256 258 260 261 263 264 266 267 267 267 267 266 266 267 268 269 270 270 271 274 275 275 276 277 278 278 279 279 279 278 278 278 277 277
254 255 254 254 254 255 255 254 256 257 258 260 262 263 265 266 266 265 266 267 267 267 267 268 269 270 270 272 273 275 276 277 277 278 279 280 280 279 278 278 277 276 276
256 256 254 254 255 257 257 257 258 259 259 260 261 263 264 265 265 265 265 266 268 269 269 269 270 271 271 272 273 276 278 278 279 279 280 281 280 279 278 277 276 275 275
257 256 256 257 257 258 258 259 260 260 260 261 262 263 263 263 264 265 265 266 268 270 271 271 271 272 273 274 275 278 278 279 280 280 281 281 281 280 279 277 276 275 274
257 257 259 260 260 261 260 261 261 262 261 263 264 264 264 265 266 266 267 267 268 270 271 271 272 273 274 275 276 278 279 280 281 281 282 281 281 281 279 278 278 276 274
260 260 261 262 262 262 263 265 264 263 264 264 265 265 267 267 267 268 268 268 270 271 271 272 273 274 274 276 277 278 279 281 282 282 282 281 281 280 280 279 278 276 274
266 265 265 265 265 264 266 267 267 266 265 266 267 268 268 268 268 268 269 269 271 272 272 273 274 275 276 278 278 279 280 281 281 281 281 281 280 280 280 279 277 275 273
270 270 270 270 269 269 271 272 270 269 268 269 269 269 270 270 269 270 270 271 273 274 274 275 276 277 278 279 280 281 281 281 281 281 281 280 280 280 279 277 277 275 273
275 274 275 275 275 275 275 275 275 275 274 273 272 273 272 272 272 271 271 272 273 275 275 276 278 279 279 280 281 282 282 281 281 280 280 280 279 278 277 277 276 275 273
279 279 280 281 280 280 281 281 280 278 277 276 277 278 277 275 275 275 275 275 276 277 277 278 279 280 281 282 283 282 282 281 281 279 278 279 278 278 277 276 275 275 273
286 286 287 288 286 286 286 286 285 284 282 281 281 280 279 278 278 278 279 280 280 280 280 280 281 282 282 283 283 282 282 281 280 279 278 278 278 277 276 275 274 274 273
291 291 292 291 289 287 286 286 287 287 285 283 282 281 281 281 281 281 282 283 284 284 283 283 283 284 284 284 284 283 282 282 280 279 279 278 277 275 274 273 273 272 271
297 295 294 292 291 290 289 289 289 290 289 288 287 285 285 284 284 285 286 287 287 287 286 286 286 286 286 285 285 284 283 282 281 280 280 279 278 276 273 272 271 270 270
Height
5818 5820 5821 5823 5824 5825 5826 5827 5828 5829 5829 5830 5830 5831 5831 5831 5831 5831 5830 5830 5830 5829 5829 5828 5828 5827 5826 5825 5824 5823 5822 5821 5820 5819 5817 5816 5815 5813 5812 5810 5808 5806 5804
5810 5811 5813 5815 5816 5817 5818 5820 5821 5821 5822 5823 5823 5824 5824 5824 5824 5824 5824 5823 5823 5822 5822 5821 5821 5820 5819 5818 5817 5817 5816 5814 5813 5812 5811 5809 5808 5807 5805 5803 5801 5799 5797
5800 5802 5804 5806 5808 5809 5810 5811 5812 5813 5814 5815 5816 5816 5816 5816 5817 5817 5816 5816 5815 5815 5814 5814 5813 5812 5812 5811 5810 5809 5808 5807 5806 5805 5804 5802 5801 5799 5798 5796 5794 5792 5790
5791 5793 5795 5797 5798 5800 5801 5803 5804 5805 5806 5807 5807 5808 5808 5808 5809 5809 5809 5808 5808 5807 5807 5806 5805 5805 5804 5803 5802 5802 5801 5800 5799 5797 5796 5795 5793 5792 5790 5788 5787 5785 5783
5781 5783 5785 5787 5789 5790 5792 5793 5795 5796 5797 5797 5798 5799 5800 5800 5800 5800 5800 5800 5800 5799 5798 5798 5797 5797 5796 5795 5794 5793 5793 5792 5790 5789 5788 5787 5785 5784 5782 5780 5779 5777 5775
5770 5772 5775 5777 5779 5780 5782 5784 5785 5786 5787 5788 5789 5790 5790 5791 5791 5792 5792 5791 5791 5790 5789 5789 5788 5788 5787 5787 5786 5785 5784 5783 5782 5781 5780 5778 5777 5775 5774 5772 5771 5769 5767
5759 5762 5764 5766 5768 5770 5772 5773 5774 5776 5777 5778 5779 5780 5781 5782 5782 5782 5782 5782 5781 5781 5780 5780 5779 5779 5778 5777 5777 5776 5775 5774 5773 5772 5771 5770 5768 5767 5765 5763 5762 5760 5758
5748 5750 5753 5755 5757 5759 5760 5762 5764 5765 5766 5767 5769 5770 5771 5772 5772 5772 5772 5772 5771 5771 5770 5770 5769 5769 5768 5768 5767 5766 5765 5765 5763 5762 5761 5760 5759 5757 5756 5754 5752 5751 5749
5735 5738 5741 5743 5746 5747 5749 5751 5752 5753 5755 5757 5757 5759 5760 5762 5762 5762 5761 5761 5760 5760 5760 5760 5759 5758 5758 5758 5757 5756 5756 5755 5754 5752 5751 5750 5749 5747 5746 5744 5742 5741 5739
5723 5726 5728 5731 5734 5735 5738 5739 5741 5742 5744 5745 5746 5747 5748 5749 5750 5751 5751 5750 5749 5749 5749 5749 5749 5748 5748 5747 5747 5746 5745 5744 5743 5742 5741 5739 5738 5736 5735 5733 5731 5730 5728
5710 5713 5716 5719 5721 5723 5725 5727 5729 5731 5732 5734 5735 5736 5736 5737 5737 5738 5740 5740 5738 5738 5738 5738 5738 5738 5737 5737 5736 5735 5734 5733 5732 5731 5729 5728 5726 5725 5723 5721 5720 5718 5716
5700 5702 5705 5707 5709 5711 5713 5715 5717 5719 5721 5722 5723 5724 5725 5725 5726 5726 5726 5727 5727 5727 5727 5726 5726 5726 5726 5725 5725 5724 5722 5721 5720 5719 5717 5716 5714 5712 5710 5708 5707 5705 5703
5690 5692 5694 5696 5698 5699 5701 5703 5705 5707 5709 5710 5711 5712 5712 5713 5713 5713 5714 5714 5715 5716 5716 5715 5715 5714 5714 5713 5712 5711 5710 5709 5707 5706 5704 5703 5701 5699 5697 5694 5692 5690 5688
5680 5682 5684 5686 5687 5689 5690 5692 5694 5696 5697 5698 5699 5700 5700 5700 5701 5701 5702 5702 5703 5704 5705 5705 5703 5703 5702 5701 5700 5698 5697 5696 5694 5692 5690 5688 5686 5684 5682 5679 5677 5675 5673
5670 5672 5674 5676 5677 5679 5680 5681 5683 5684 5685 5686 5687 5687 5688 5688 5688 5689 5689 5690 5691 5691 5693 5693 5692 5691 5689 5688 5687 5685 5684 5683 5680 5678 5676 5673 5671 5668 5666 5664 5661 5659 5658
5661 5662 5664 5666 5667 5669 5670 5671 5672 5672 5673 5674 5675 5675 5676 5676 5677 5677 5678 5678 5678 5678 5679 5681 5679 5678 5676 5675 5674 5672 5670 5668 5666 5664 5661 5658 5655 5652 5650 5648 5646 5644 5642
5653 5654 5655 5656 5658 5658 5659 5659 5660 5661 5661 5662 5663 5663 5664 5665 5665 5665 5665 5665 5665 5665 5666 5668 5666 5665 5663 5662 5660 5658 5655 5653 5651 5648 5645 5642 5639 5636 5634 5631 5629 5627 5626
5646 5646 5647 5648 5648 5648 5649 5649 5650 5650 5650 5651 5652 5652 5652 5652 5653 5653 5653 5653 5653 5652 5652 5654 5653 5651 5649 5647 5645 5643 5641 5638 5635 5632 5629 5626 5623 5620 5617 5615 5612 5611 5609
5639 5639 5640 5640 5640 5640 5640 5639 5639 5640 5640 5641 5641 5641 5641 5640 5641 5641 5640 5640 5640 5639 5638 5639 5638 5637 5635 5632 5630 5628 5626 5623 5619 5616 5613 5610 5607 5604 5601 5598 5596 5594 5593
5634 5633 5633 5633 5632 5632 5631 5631 5630 5630 5630 5630 5630 5630 5629 5629 5629 5628 5627 5627 5626 5625 5624 5624 5623 5622 5620 5617 5615 5613 5610 5607 5603 5600 5596 5593 5590 5587 5585 5582 5581 5579 5577
5628 5627 5627 5626 5625 5624 5623 5622 5621 5620 5619 5619 5618 5618 5617 5616 5615 5615 5614 5614 5613 5612 5610 5609 5608 5606 5604 5602 5599 5596 5594 5591 5588 5583 5580 5578 5574 5572 5569 5567 5565 5563 5562
5623 5622 5621 5619 5618 5616 5615 5613 5611 5610 5609 5608 5607 5606 5605 5604 5603 5602 5601 5600 5599 5597 5596 5594 5593 5591 5589 5586 5583 5580 5577 5574 5573 5569 5564 5562 5559 5556 5554 5552 5550 5548 5547
5618 5616 5615 5613 5611 5609 5607 5605 5603 5601 5600 5598 5597 5595 5594 5592 5591 5589 5588 5587 5585 5583 5581 5579 5577 5575 5573 5571 5567 5564 5560 5556 5554 5551 5548 5547 5543 5541 5539 5537 5535 5534 5533
5612 5610 5608 5606 5604 5602 5600 5597 5595 5593 5591 5589 5587 5585 5583 5581 5579 5577 5576 5573 5571 5568 5566 5564 5562 5559 5556 5553 5549 5547 5543 5540 5538 5534 5531 5530 5528 5525 5523 5522 5520 5519 5519
5607 5604 5601 5599 5597 5594 5592 5590 5587 5584 5582 5579 5577 5574 5572 5570 5567 5565 5563 5560 5557 5554 5551 5548 5545 5542 5539 5536 5532 5530 5527 5524 5522 5519 5516 5514 5512 5510 5509 5507 5506 5505 5504
5600 5597 5595 5592 5589 5587 5584 5581 5578 5576 5573 5570 5567 5564 5561 5559 5556 5553 5550 5548 5545 5541 5538 5534 5531 5527 5524 5520 5517 5513 5511 5508 5506 5503 5501 5498 5496 5494 5494 5494 5492 5491 5490